SKW3436 CYLW-KSEA

Flight info

Callsign SKW3436
Flight time N/A
Altitude 28000
Route MRYT5 MERYT DCT JAKSN GLASR3
Aircraft E75L/M-SDE3GILORVW/S

Departure

Time 2026-04-30 03:07
Airport Kelowna International Airport (CYLW)

Arrival

Time N/A
Airport Seattle–Tacoma International Airport (KSEA)
Time Latitude Longitude Altitude Speed Heading
2026-04-30 02:59 49.95022 -119.38007 1386 ft 0 kts 328°
2026-04-30 02:59 49.95019 -119.38004 1386 ft 2 kts 326°
2026-04-30 03:00 49.95009 -119.37983 1382 ft 3 kts 294°
2026-04-30 03:00 49.94999 -119.37958 1384 ft 3 kts 303°
2026-04-30 03:00 49.94991 -119.37930 1385 ft 3 kts 281°
2026-04-30 03:00 49.94991 -119.37899 1384 ft 3 kts 258°
2026-04-30 03:01 49.94994 -119.37883 1385 ft 0 kts 250°
2026-04-30 03:03 49.94987 -119.37901 1385 ft 2 kts 219°
2026-04-30 03:03 49.94973 -119.37893 1384 ft 4 kts 124°
2026-04-30 03:04 49.94949 -119.37840 1380 ft 10 kts 155°
2026-04-30 03:04 49.94862 -119.37817 1382 ft 15 kts 173°
2026-04-30 03:04 49.94814 -119.37800 1380 ft 0 kts 152°
2026-04-30 03:05 49.94812 -119.37798 1380 ft 2 kts 152°
2026-04-30 03:05 49.94791 -119.37775 1379 ft 7 kts 136°
2026-04-30 03:05 49.94757 -119.37702 1378 ft 8 kts 97°
2026-04-30 03:06 49.94789 -119.37664 1377 ft 0 kts 352°
2026-04-30 03:06 49.94824 -119.37671 1380 ft 13 kts 354°
2026-04-30 03:06 49.94829 -119.37672 1381 ft 0 kts 354°
2026-04-30 03:07 49.95080 -119.37712 1383 ft 78 kts 354°
2026-04-30 03:07 49.95878 -119.37821 1443 ft 145 kts 354°
2026-04-30 03:07 49.96883 -119.38049 2362 ft 147 kts 346°
2026-04-30 03:08 49.97952 -119.38453 3044 ft 172 kts 345°
2026-04-30 03:08 49.99151 -119.38975 4090 ft 184 kts 346°
2026-04-30 03:08 50.00465 -119.39474 5156 ft 204 kts 348°
2026-04-30 03:08 50.01900 -119.39934 6363 ft 215 kts 348°
2026-04-30 03:09 50.03422 -119.40447 7487 ft 227 kts 347°
2026-04-30 03:09 50.04890 -119.41001 9048 ft 216 kts 346°
2026-04-30 03:09 50.06396 -119.41599 10179 ft 220 kts 340°
2026-04-30 03:09 50.07819 -119.42383 11398 ft 211 kts 340°
2026-04-30 03:10 50.09217 -119.43117 12097 ft 211 kts 341°
2026-04-30 03:10 50.10572 -119.43938 12807 ft 207 kts 323°
2026-04-30 03:10 50.11416 -119.45694 13382 ft 210 kts 284°
2026-04-30 03:10 50.11323 -119.47963 13904 ft 218 kts 245°
2026-04-30 03:11 50.10510 -119.49993 14332 ft 228 kts 241°
2026-04-30 03:11 50.09807 -119.52273 14604 ft 245 kts 250°
2026-04-30 03:11 50.09259 -119.54886 14903 ft 263 kts 255°
2026-04-30 03:11 50.08766 -119.57730 15200 ft 281 kts 258°
2026-04-30 03:12 50.08387 -119.60822 15488 ft 299 kts 262°
2026-04-30 03:12 50.08048 -119.64110 15766 ft 316 kts 262°
2026-04-30 03:12 50.07699 -119.67547 16034 ft 333 kts 261°
2026-04-30 03:12 50.06828 -119.70963 16276 ft 347 kts 237°
2026-04-30 03:13 50.05107 -119.73597 16521 ft 351 kts 213°
2026-04-30 03:13 50.02918 -119.75317 16770 ft 354 kts 205°
2026-04-30 03:13 50.00657 -119.76855 17021 ft 356 kts 204°
2026-04-30 03:13 49.98381 -119.78422 17252 ft 357 kts 205°
2026-04-30 03:14 49.96104 -119.80004 17472 ft 360 kts 205°
2026-04-30 03:14 49.93922 -119.81800 17418 ft 358 kts 219°
2026-04-30 03:14 49.92297 -119.84664 17401 ft 353 kts 243°
2026-04-30 03:14 49.91366 -119.88178 17421 ft 352 kts 248°
2026-04-30 03:15 49.89956 -119.91289 17424 ft 357 kts 224°
2026-04-30 03:15 49.87853 -119.93315 17457 ft 359 kts 200°
2026-04-30 03:15 49.85386 -119.93907 17497 ft 360 kts 176°
2026-04-30 03:15 49.82975 -119.92958 17539 ft 359 kts 153°
2026-04-30 03:16 49.81047 -119.90727 17418 ft 340 kts 129°
2026-04-30 03:16 49.79932 -119.87672 17177 ft 324 kts 104°
2026-04-30 03:16 49.79782 -119.84294 16937 ft 309 kts 77°
2026-04-30 03:16 49.80369 -119.81172 16705 ft 297 kts 68°
2026-04-30 03:17 49.81102 -119.78214 16466 ft 289 kts 66°
2026-04-30 03:17 49.81858 -119.75365 16229 ft 283 kts 65°
2026-04-30 03:17 49.82614 -119.72590 15990 ft 277 kts 65°
2026-04-30 03:17 49.83366 -119.69830 15434 ft 283 kts 68°